DAL179 ZGGG-WARR

Flight info

Callsign DAL179
Flight time 4h 35m
Altitude 35000
Route SAREX9 SAREX W6 NLG W18 TAMOT B330 BIGEX A583 AKOTA/N0473F340 M754 TENON/N0471F360 M754 VINIK M522 ELANG/N0466F370 M522 KEVOK/N0468F360 DCT RITBO
Aircraft B738/M-SDE2E3FGHIRWXY/LB1

Departure

Time 2026-04-28 14:38
Airport Guangzhou Baiyun International Airport (ZGGG)

Arrival

Time 2026-04-28 19:13
Airport Juanda International Airport (WARR)
Time Latitude Longitude Altitude Speed Heading
2026-04-28 14:13 23.39205 113.30381 53 ft 0 kts 194°
2026-04-28 14:29 23.39219 113.30385 53 ft 4 kts 187°
2026-04-28 14:29 23.39245 113.30385 51 ft 4 kts 161°
2026-04-28 14:30 23.39266 113.30370 49 ft 4 kts 114°
2026-04-28 14:30 23.39270 113.30359 51 ft 1 kts 104°
2026-04-28 14:30 23.39270 113.30358 51 ft 0 kts 104°
2026-04-28 14:32 23.39269 113.30361 51 ft 1 kts 104°
2026-04-28 14:32 23.39265 113.30378 54 ft 4 kts 103°
2026-04-28 14:32 23.39258 113.30413 53 ft 6 kts 103°
2026-04-28 14:33 23.39247 113.30465 55 ft 8 kts 102°
2026-04-28 14:33 23.39232 113.30532 54 ft 10 kts 105°
2026-04-28 14:33 23.39223 113.30613 54 ft 12 kts 96°
2026-04-28 14:33 23.39260 113.30685 57 ft 13 kts 24°
2026-04-28 14:34 23.39451 113.30740 54 ft 16 kts 12°
2026-04-28 14:34 23.39564 113.30773 49 ft 17 kts 11°
2026-04-28 14:34 23.39686 113.30795 52 ft 19 kts 16°
2026-04-28 14:35 23.39814 113.30837 55 ft 20 kts 16°
2026-04-28 14:35 23.39952 113.30876 54 ft 21 kts 13°
2026-04-28 14:35 23.40099 113.30913 56 ft 22 kts 12°
2026-04-28 14:35 23.40252 113.30955 55 ft 23 kts 14°
2026-04-28 14:36 23.40412 113.30998 56 ft 24 kts 14°
2026-04-28 14:36 23.40567 113.31041 51 ft 15 kts 13°
2026-04-28 14:36 23.40675 113.31068 55 ft 17 kts 12°
2026-04-28 14:36 23.40745 113.31116 53 ft 12 kts 78°
2026-04-28 14:37 23.40731 113.31211 52 ft 13 kts 103°
2026-04-28 14:37 23.40706 113.31316 51 ft 16 kts 104°
2026-04-28 14:37 23.40613 113.31357 53 ft 19 kts 193°
2026-04-28 14:37 23.40295 113.31272 50 ft 81 kts 194°
2026-04-28 14:38 23.39537 113.31068 50 ft 141 kts 194°
2026-04-28 14:38 23.38429 113.30769 205 ft 179 kts 193°
2026-04-28 14:38 23.37210 113.30444 905 ft 182 kts 192°
2026-04-28 14:38 23.36037 113.30127 1899 ft 164 kts 192°
2026-04-28 14:39 23.34880 113.29815 2447 ft 184 kts 193°
2026-04-28 14:39 23.33552 113.29455 2660 ft 209 kts 193°
2026-04-28 14:39 23.32082 113.29056 3018 ft 223 kts 194°
2026-04-28 14:39 23.30564 113.28642 3618 ft 227 kts 195°
2026-04-28 14:40 23.28994 113.28384 4363 ft 230 kts 182°
2026-04-28 14:40 23.28453 113.28389 4643 ft 230 kts 181°
2026-04-28 14:40 23.25759 113.28406 5790 ft 237 kts 182°
2026-04-28 14:40 23.24057 113.28403 6204 ft 255 kts 183°
2026-04-28 14:41 23.22245 113.28391 6722 ft 265 kts 183°
2026-04-28 14:41 23.20387 113.28377 7387 ft 269 kts 183°
2026-04-28 14:41 23.18503 113.28324 8037 ft 272 kts 189°
2026-04-28 14:41 23.16645 113.27931 8739 ft 273 kts 196°
2026-04-28 14:42 23.14791 113.27435 9478 ft 276 kts 197°
2026-04-28 14:42 23.12910 113.26944 10124 ft 281 kts 196°
2026-04-28 14:42 23.10936 113.26444 10328 ft 303 kts 196°
2026-04-28 14:42 23.08814 113.25916 10497 ft 324 kts 195°
2026-04-28 14:43 23.06562 113.25365 10786 ft 338 kts 195°
2026-04-28 14:43 23.04238 113.24838 11322 ft 344 kts 190°
2026-04-28 14:43 23.01823 113.25007 11926 ft 355 kts 167°
2026-04-28 14:43 22.99572 113.26162 12561 ft 365 kts 148°
2026-04-28 14:44 22.97755 113.28129 13124 ft 378 kts 127°
2026-04-28 14:44 22.96464 113.30643 13709 ft 384 kts 120°
2026-04-28 14:44 22.95280 113.33217 14186 ft 388 kts 120°
2026-04-28 14:44 22.94080 113.35856 14679 ft 392 kts 120°
2026-04-28 14:45 22.92852 113.38511 15195 ft 395 kts 120°
2026-04-28 14:45 22.91599 113.41169 15711 ft 397 kts 121°
2026-04-28 14:45 22.90327 113.43841 16207 ft 400 kts 121°
2026-04-28 14:45 22.89407 113.45622 16540 ft 400 kts 128°
2026-04-28 14:46 22.86729 113.48246 17155 ft 391 kts 154°
2026-04-28 14:46 22.84223 113.49311 17654 ft 386 kts 170°
2026-04-28 14:46 22.81592 113.49918 18127 ft 388 kts 172°
2026-04-28 14:46 22.78924 113.50481 18507 ft 392 kts 172°
2026-04-28 14:47 22.76237 113.51046 18903 ft 395 kts 172°
2026-04-28 14:47 22.73532 113.51629 19312 ft 397 kts 172°
2026-04-28 14:47 22.70815 113.52228 19712 ft 400 kts 172°
2026-04-28 14:47 22.68080 113.52841 20096 ft 403 kts 172°
2026-04-28 14:48 22.65324 113.53463 20483 ft 406 kts 172°
2026-04-28 14:48 22.62554 113.54090 20868 ft 408 kts 172°
2026-04-28 14:48 22.59765 113.54719 21240 ft 411 kts 172°
2026-04-28 14:48 22.56956 113.55361 21605 ft 414 kts 169°
2026-04-28 14:49 22.54249 113.56510 21901 ft 426 kts 152°
2026-04-28 14:49 22.51923 113.58532 22278 ft 434 kts 135°
2026-04-28 14:49 22.50160 113.61211 22650 ft 441 kts 124°
2026-04-28 14:49 22.48583 113.64068 22992 ft 444 kts 123°
2026-04-28 14:50 22.47005 113.66950 23290 ft 447 kts 123°
2026-04-28 14:50 22.45399 113.69847 23584 ft 450 kts 124°
2026-04-28 14:50 22.43772 113.72740 23873 ft 451 kts 124°
2026-04-28 14:50 22.42124 113.75639 24161 ft 453 kts 124°
2026-04-28 14:51 22.40464 113.78544 24406 ft 456 kts 124°
2026-04-28 14:51 22.38789 113.81470 24654 ft 459 kts 124°
2026-04-28 14:51 22.37678 113.83412 24836 ft 460 kts 124°
2026-04-28 14:51 22.35357 113.87297 25209 ft 460 kts 130°
2026-04-28 14:52 22.33279 113.89908 25474 ft 458 kts 136°
2026-04-28 14:52 22.31828 113.91567 25662 ft 459 kts 137°
2026-04-28 14:52 22.29618 113.94067 25919 ft 461 kts 137°
2026-04-28 14:52 22.27421 113.96595 26165 ft 463 kts 136°
2026-04-28 14:53 22.25234 113.99163 26438 ft 465 kts 136°
2026-04-28 14:53 22.23012 114.01697 26698 ft 464 kts 141°
2026-04-28 14:53 22.20507 114.03884 26919 ft 462 kts 150°
2026-04-28 14:53 22.17736 114.05612 27141 ft 460 kts 156°
2026-04-28 14:54 22.14894 114.07216 27366 ft 462 kts 156°
2026-04-28 14:54 22.12028 114.08814 27569 ft 465 kts 156°
2026-04-28 14:54 22.09156 114.10420 27783 ft 467 kts 156°
2026-04-28 14:54 22.06273 114.12045 28018 ft 468 kts 155°
2026-04-28 14:55 22.03383 114.13685 28251 ft 469 kts 155°
2026-04-28 14:55 22.00492 114.15334 28468 ft 471 kts 155°
2026-04-28 14:55 21.97592 114.16993 28669 ft 473 kts 155°
2026-04-28 14:55 21.94682 114.18661 28868 ft 475 kts 155°
2026-04-28 14:56 21.91762 114.20333 29084 ft 476 kts 155°
2026-04-28 14:56 21.88834 114.22011 29292 ft 477 kts 155°
2026-04-28 14:56 21.85952 114.23661 29526 ft 477 kts 155°
2026-04-28 14:56 21.83020 114.25338 29708 ft 479 kts 155°
2026-04-28 14:57 21.80103 114.27005 29816 ft 483 kts 155°
2026-04-28 14:57 21.77130 114.28702 29994 ft 484 kts 155°
2026-04-28 14:57 21.74157 114.30399 30247 ft 483 kts 156°
2026-04-28 14:57 21.71195 114.32091 30551 ft 481 kts 156°
2026-04-28 14:58 21.68248 114.33773 30840 ft 479 kts 156°
2026-04-28 14:58 21.65304 114.35452 31079 ft 479 kts 156°
2026-04-28 14:58 21.62359 114.37130 31302 ft 479 kts 156°
2026-04-28 14:58 21.59419 114.38805 31558 ft 478 kts 155°
2026-04-28 14:59 21.56485 114.40475 31847 ft 476 kts 155°
2026-04-28 14:59 21.53563 114.42138 32132 ft 475 kts 155°
2026-04-28 14:59 21.50643 114.43798 32304 ft 476 kts 156°
2026-04-28 15:00 21.44744 114.47148 32578 ft 480 kts 156°
2026-04-28 15:00 21.41797 114.48823 32924 ft 477 kts 156°
2026-04-28 15:00 21.38875 114.50483 33275 ft 474 kts 156°
2026-04-28 15:00 21.35963 114.52137 33550 ft 473 kts 156°
2026-04-28 15:01 21.33052 114.53788 33761 ft 474 kts 156°
2026-04-28 15:01 21.30136 114.55441 33964 ft 474 kts 156°
2026-04-28 15:01 21.27225 114.57090 34175 ft 473 kts 156°
2026-04-28 15:01 21.24317 114.58737 34399 ft 472 kts 156°
2026-04-28 15:02 21.21419 114.60377 34593 ft 471 kts 156°
2026-04-28 15:02 21.18519 114.62018 34751 ft 472 kts 156°
2026-04-28 15:02 21.15610 114.63663 34861 ft 473 kts 156°
2026-04-28 15:03 21.09768 114.66964 34902 ft 475 kts 156°
2026-04-28 15:03 21.03939 114.70258 34900 ft 472 kts 156°
2026-04-28 15:04 20.98149 114.73527 34903 ft 469 kts 156°
2026-04-28 15:04 20.92386 114.76776 34905 ft 467 kts 157°
2026-04-28 15:05 20.86640 114.80011 34900 ft 466 kts 156°
2026-04-28 15:05 20.80908 114.83237 34913 ft 465 kts 156°
2026-04-28 15:06 20.75178 114.86459 34903 ft 465 kts 156°
2026-04-28 15:06 20.69447 114.89678 34908 ft 465 kts 156°
2026-04-28 15:07 20.63711 114.92897 34914 ft 466 kts 156°
2026-04-28 15:07 20.57968 114.96118 34914 ft 467 kts 156°
2026-04-28 15:08 20.52210 114.99344 34907 ft 468 kts 156°
2026-04-28 15:08 20.46476 115.02555 34904 ft 469 kts 156°
2026-04-28 15:09 20.40694 115.05790 34914 ft 470 kts 156°
2026-04-28 15:09 20.34901 115.09028 34917 ft 471 kts 156°
2026-04-28 15:10 20.29086 115.12275 34914 ft 472 kts 156°
2026-04-28 15:10 20.23256 115.15528 34911 ft 473 kts 156°
2026-04-28 15:11 20.17415 115.18785 34918 ft 474 kts 156°
2026-04-28 15:11 20.11567 115.22042 34913 ft 474 kts 156°
2026-04-28 15:12 20.05719 115.25297 34908 ft 474 kts 156°
2026-04-28 15:12 19.99914 115.28526 34908 ft 474 kts 156°
2026-04-28 15:13 19.94077 115.31769 34912 ft 473 kts 156°
2026-04-28 15:13 19.88250 115.35004 34901 ft 472 kts 156°
2026-04-28 15:14 19.82437 115.38229 34911 ft 471 kts 156°
2026-04-28 15:14 19.76631 115.41447 34913 ft 470 kts 156°
2026-04-28 15:15 19.70831 115.44659 34918 ft 470 kts 157°
2026-04-28 15:15 19.65034 115.47866 34918 ft 470 kts 157°
2026-04-28 15:16 19.59237 115.51071 34915 ft 470 kts 157°
2026-04-28 15:16 19.53442 115.54272 34904 ft 470 kts 157°
2026-04-28 15:17 19.47642 115.57473 34916 ft 470 kts 156°
2026-04-28 15:17 19.41843 115.60672 34916 ft 470 kts 156°
2026-04-28 15:18 19.36038 115.63871 34920 ft 470 kts 157°
2026-04-28 15:18 19.30229 115.67070 34911 ft 471 kts 157°
2026-04-28 15:19 19.24412 115.70270 34917 ft 471 kts 157°
2026-04-28 15:19 19.18589 115.73471 34911 ft 472 kts 156°
2026-04-28 15:20 19.12756 115.76676 34918 ft 472 kts 157°
2026-04-28 15:20 19.06920 115.79880 34917 ft 473 kts 157°
2026-04-28 15:21 19.01082 115.83083 34918 ft 473 kts 157°
2026-04-28 15:21 18.95246 115.86281 34917 ft 473 kts 157°
2026-04-28 15:22 18.89410 115.89479 34920 ft 472 kts 157°
2026-04-28 15:22 18.83579 115.92673 34909 ft 472 kts 157°
2026-04-28 15:23 18.77751 115.95863 34913 ft 472 kts 157°
2026-04-28 15:23 18.71924 115.99051 34919 ft 472 kts 157°
2026-04-28 15:24 18.66087 116.02240 34922 ft 473 kts 157°
2026-04-28 15:24 18.60239 116.05434 34923 ft 474 kts 157°
2026-04-28 15:25 18.54380 116.08631 34924 ft 474 kts 157°
2026-04-28 15:25 18.48554 116.11808 34921 ft 475 kts 157°
2026-04-28 15:26 18.42683 116.15007 34921 ft 475 kts 157°
2026-04-28 15:26 18.36803 116.18208 34922 ft 476 kts 157°
2026-04-28 15:27 18.30922 116.21407 34920 ft 476 kts 157°
2026-04-28 15:27 18.25047 116.24601 34919 ft 476 kts 157°
2026-04-28 15:28 18.19165 116.27796 34911 ft 475 kts 156°
2026-04-28 15:28 18.13297 116.30981 34923 ft 474 kts 156°
2026-04-28 15:29 18.07433 116.34162 34919 ft 474 kts 156°
2026-04-28 15:29 18.01574 116.37337 34925 ft 473 kts 156°
2026-04-28 15:30 17.95720 116.40507 34923 ft 473 kts 156°
2026-04-28 15:30 17.89874 116.43671 34921 ft 473 kts 156°
2026-04-28 15:31 17.84025 116.46835 34922 ft 472 kts 156°
2026-04-28 15:31 17.78184 116.49991 34923 ft 472 kts 156°
2026-04-28 15:32 17.72345 116.53142 34924 ft 472 kts 156°
2026-04-28 15:32 17.66507 116.56290 34925 ft 472 kts 156°
2026-04-28 15:33 17.60672 116.59435 34917 ft 472 kts 156°
2026-04-28 15:33 17.54834 116.62580 34929 ft 472 kts 156°
2026-04-28 15:34 17.48992 116.65725 34926 ft 472 kts 156°
2026-04-28 15:34 17.43150 116.68867 34922 ft 472 kts 156°
2026-04-28 15:35 17.37300 116.72012 34924 ft 473 kts 156°
2026-04-28 15:35 17.28560 116.76706 34926 ft 473 kts 156°
2026-04-28 15:36 17.22708 116.79846 34926 ft 473 kts 156°
2026-04-28 15:36 17.16851 116.82986 34922 ft 473 kts 156°
2026-04-28 15:37 17.11000 116.86122 34923 ft 472 kts 156°
2026-04-28 15:37 17.06142 116.88723 34921 ft 472 kts 156°
2026-04-28 15:38 16.99321 116.92373 34925 ft 471 kts 156°
2026-04-28 15:38 16.93491 116.95490 34926 ft 470 kts 156°
2026-04-28 15:39 16.87666 116.98603 34923 ft 470 kts 156°
2026-04-28 15:39 16.82829 117.01185 34923 ft 469 kts 156°
2026-04-28 15:40 16.77016 117.04288 34923 ft 469 kts 156°
2026-04-28 15:40 16.71208 117.07385 34924 ft 469 kts 156°
2026-04-28 15:41 16.65398 117.10481 34924 ft 469 kts 156°
2026-04-28 15:41 16.59587 117.13576 34924 ft 469 kts 156°
2026-04-28 15:42 16.53777 117.16670 34925 ft 469 kts 156°
2026-04-28 15:42 16.47857 117.19472 34919 ft 464 kts 168°
2026-04-28 15:43 16.41542 117.20207 34922 ft 454 kts 188°
2026-04-28 15:43 16.35299 117.19393 34927 ft 452 kts 191°
2026-04-28 15:44 16.29095 117.18522 34925 ft 453 kts 191°
2026-04-28 15:44 16.22833 117.17681 34927 ft 454 kts 191°
2026-04-28 15:45 16.16553 117.16864 34926 ft 455 kts 190°
2026-04-28 15:45 16.10222 117.16049 34923 ft 456 kts 190°
2026-04-28 15:46 16.03971 117.15246 34927 ft 456 kts 190°
2026-04-28 15:46 15.97673 117.14435 34925 ft 456 kts 190°
2026-04-28 15:47 15.91377 117.13625 34921 ft 456 kts 190°
2026-04-28 15:47 15.85087 117.12816 34923 ft 455 kts 190°
2026-04-28 15:48 15.78807 117.12009 34924 ft 455 kts 190°
2026-04-28 15:48 15.72532 117.11203 34924 ft 454 kts 190°
2026-04-28 15:49 15.66265 117.10398 34922 ft 453 kts 190°
2026-04-28 15:49 15.60005 117.09594 34920 ft 453 kts 190°
2026-04-28 15:50 15.53757 117.08793 34922 ft 452 kts 190°
2026-04-28 15:50 15.47510 117.07992 34923 ft 452 kts 190°
2026-04-28 15:51 15.41273 117.07193 34929 ft 453 kts 190°
2026-04-28 15:51 15.34993 117.06389 35228 ft 454 kts 190°
2026-04-28 15:52 15.31867 117.05989 35513 ft 451 kts 190°
2026-04-28 15:52 15.28754 117.05592 35734 ft 450 kts 190°
2026-04-28 15:52 15.25650 117.05195 35877 ft 450 kts 190°
2026-04-28 15:52 15.22536 117.04797 35913 ft 452 kts 190°
2026-04-28 15:53 15.16276 117.03996 35921 ft 453 kts 190°
2026-04-28 15:53 15.10029 117.03198 35919 ft 451 kts 190°
2026-04-28 15:54 15.03802 117.02404 35920 ft 450 kts 190°
2026-04-28 15:54 14.97591 117.01612 35917 ft 449 kts 190°
2026-04-28 15:55 14.91396 117.00822 35917 ft 448 kts 190°
2026-04-28 15:55 14.85247 117.00038 35922 ft 448 kts 190°
2026-04-28 15:56 14.79055 116.99250 35919 ft 448 kts 190°
2026-04-28 15:56 14.72861 116.98461 35919 ft 449 kts 190°
2026-04-28 15:57 14.66652 116.97671 35919 ft 450 kts 190°
2026-04-28 15:57 14.60431 116.96880 35915 ft 451 kts 189°
2026-04-28 15:58 14.54196 116.96088 35921 ft 452 kts 189°
2026-04-28 15:58 14.47946 116.95295 35916 ft 453 kts 189°
2026-04-28 15:59 14.41683 116.94500 35916 ft 454 kts 189°
2026-04-28 15:59 14.35412 116.93704 35913 ft 454 kts 189°
2026-04-28 16:00 14.29132 116.92908 35907 ft 455 kts 189°
2026-04-28 16:00 14.22848 116.92112 35917 ft 455 kts 189°
2026-04-28 16:01 14.16562 116.91316 35911 ft 455 kts 189°
2026-04-28 16:01 14.10275 116.90523 35912 ft 455 kts 189°
2026-04-28 16:02 14.03990 116.89730 35912 ft 455 kts 189°
2026-04-28 16:02 13.97708 116.88937 35904 ft 455 kts 189°
2026-04-28 16:03 13.91432 116.88146 35914 ft 454 kts 189°
2026-04-28 16:03 13.85158 116.87355 35912 ft 454 kts 189°
2026-04-28 16:04 13.78887 116.86565 35920 ft 454 kts 189°
2026-04-28 16:04 13.72617 116.85776 35910 ft 454 kts 189°
2026-04-28 16:05 13.66396 116.84993 35913 ft 453 kts 189°
2026-04-28 16:05 13.60133 116.84205 35913 ft 453 kts 189°
2026-04-28 16:06 13.53832 116.83413 35911 ft 453 kts 189°
2026-04-28 16:06 13.47575 116.82627 35912 ft 453 kts 189°
2026-04-28 16:07 13.41317 116.81841 35912 ft 453 kts 189°
2026-04-28 16:08 13.31939 116.80665 35909 ft 453 kts 188°
2026-04-28 16:08 13.25681 116.79880 35914 ft 453 kts 188°
2026-04-28 16:09 13.16328 116.78708 35915 ft 454 kts 188°
2026-04-28 16:10 13.06913 116.77528 35912 ft 455 kts 188°
2026-04-28 16:10 12.97483 116.76349 35911 ft 455 kts 188°
2026-04-28 16:11 12.84889 116.74774 35908 ft 456 kts 188°
2026-04-28 16:12 12.75430 116.73592 35907 ft 457 kts 188°
2026-04-28 16:13 12.65973 116.72412 35907 ft 456 kts 188°
2026-04-28 16:14 12.53366 116.70840 35905 ft 456 kts 188°
2026-04-28 16:15 12.40784 116.69272 35906 ft 455 kts 188°
2026-04-28 16:15 12.34500 116.68489 35908 ft 455 kts 188°
2026-04-28 16:16 12.25082 116.67317 35910 ft 454 kts 188°
2026-04-28 16:17 12.15673 116.66147 35903 ft 454 kts 188°
2026-04-28 16:17 12.09399 116.65367 35901 ft 454 kts 188°
2026-04-28 16:18 12.03165 116.64593 35906 ft 454 kts 188°
2026-04-28 16:18 11.96885 116.63813 35903 ft 455 kts 188°
2026-04-28 16:19 11.90596 116.63032 35901 ft 455 kts 188°
2026-04-28 16:19 11.84300 116.62251 35900 ft 456 kts 188°
2026-04-28 16:20 11.77998 116.61470 35896 ft 457 kts 188°
2026-04-28 16:20 11.71683 116.60687 35896 ft 457 kts 188°
2026-04-28 16:21 11.65362 116.59904 35896 ft 458 kts 188°
2026-04-28 16:21 11.59033 116.59120 35897 ft 458 kts 188°
2026-04-28 16:22 11.52702 116.58337 35900 ft 459 kts 188°
2026-04-28 16:22 11.46363 116.57552 35901 ft 459 kts 188°
2026-04-28 16:23 11.40064 116.56773 35893 ft 459 kts 188°
2026-04-28 16:23 11.33723 116.55990 35899 ft 459 kts 188°
2026-04-28 16:24 11.27380 116.55206 35896 ft 459 kts 188°
2026-04-28 16:24 11.21039 116.54423 35898 ft 459 kts 188°
2026-04-28 16:25 11.14699 116.53640 35891 ft 459 kts 188°
2026-04-28 16:25 11.08361 116.52860 35891 ft 459 kts 188°
2026-04-28 16:26 11.02023 116.52080 35896 ft 459 kts 187°
2026-04-28 16:26 10.96758 116.51432 35891 ft 459 kts 188°
2026-04-28 16:27 10.90417 116.50652 35895 ft 459 kts 188°
2026-04-28 16:28 10.80906 116.49482 35893 ft 459 kts 187°
2026-04-28 16:28 10.74561 116.48702 35889 ft 459 kts 187°
2026-04-28 16:29 10.65043 116.47532 35888 ft 459 kts 187°
2026-04-28 16:30 10.55531 116.46365 35893 ft 459 kts 187°
2026-04-28 16:30 10.49190 116.45587 35893 ft 459 kts 188°
2026-04-28 16:31 10.42851 116.44809 35885 ft 459 kts 187°
2026-04-28 16:31 10.36515 116.44032 35890 ft 458 kts 187°
2026-04-28 16:32 10.30185 116.43256 35886 ft 458 kts 187°
2026-04-28 16:32 10.20688 116.42093 35887 ft 458 kts 187°
2026-04-28 16:33 10.15429 116.41449 35878 ft 458 kts 187°
2026-04-28 16:33 10.08030 116.40544 35882 ft 458 kts 188°
2026-04-28 16:34 10.01704 116.39770 35885 ft 458 kts 187°
2026-04-28 16:34 9.95414 116.39000 35888 ft 458 kts 187°
2026-04-28 16:35 9.89087 116.38227 35889 ft 458 kts 188°
2026-04-28 16:35 9.82758 116.37453 35880 ft 458 kts 187°
2026-04-28 16:36 9.76436 116.36681 35886 ft 458 kts 187°
2026-04-28 16:36 9.70107 116.35908 35881 ft 458 kts 187°
2026-04-28 16:37 9.63772 116.35135 35887 ft 459 kts 187°
2026-04-28 16:38 9.54262 116.33975 35889 ft 459 kts 187°
2026-04-28 16:38 9.47921 116.33201 35893 ft 459 kts 187°
2026-04-28 16:39 9.41580 116.32428 35886 ft 459 kts 187°
2026-04-28 16:39 9.35254 116.31657 35884 ft 458 kts 187°
2026-04-28 16:40 9.28931 116.30887 35878 ft 456 kts 187°
2026-04-28 16:40 9.22631 116.30119 35880 ft 455 kts 187°
2026-04-28 16:41 9.16348 116.29353 35888 ft 454 kts 187°
2026-04-28 16:41 9.10126 116.28594 35878 ft 453 kts 187°
2026-04-28 16:42 9.03872 116.27832 35880 ft 452 kts 187°
2026-04-28 16:42 8.97630 116.27071 35886 ft 451 kts 187°
2026-04-28 16:43 8.91399 116.26312 35879 ft 451 kts 187°
2026-04-28 16:43 8.85175 116.25554 35884 ft 450 kts 187°
2026-04-28 16:44 8.78953 116.24796 35891 ft 450 kts 187°
2026-04-28 16:44 8.72732 116.24039 35879 ft 450 kts 187°
2026-04-28 16:45 8.66510 116.23281 35881 ft 451 kts 187°
2026-04-28 16:45 8.60272 116.22609 35887 ft 451 kts 184°
2026-04-28 16:46 8.54018 116.22170 35874 ft 451 kts 184°
2026-04-28 16:46 8.47756 116.21737 35870 ft 451 kts 184°
2026-04-28 16:47 8.41487 116.21271 35889 ft 452 kts 184°
2026-04-28 16:47 8.35216 116.20791 35881 ft 453 kts 184°
2026-04-28 16:48 8.28931 116.20310 35877 ft 453 kts 184°
2026-04-28 16:48 8.22640 116.19831 35888 ft 454 kts 184°
2026-04-28 16:49 8.16341 116.19354 35879 ft 454 kts 184°
2026-04-28 16:49 8.10028 116.18903 35876 ft 455 kts 184°
2026-04-28 16:50 8.03706 116.18457 35890 ft 456 kts 184°
2026-04-28 16:50 7.97372 116.18008 35883 ft 457 kts 184°
2026-04-28 16:51 7.91026 116.17557 35885 ft 457 kts 184°
2026-04-28 16:51 7.84717 116.17108 35879 ft 458 kts 184°
2026-04-28 16:52 7.78357 116.16655 35881 ft 458 kts 184°
2026-04-28 16:52 7.72002 116.16202 35878 ft 458 kts 184°
2026-04-28 16:53 7.65649 116.15750 35879 ft 457 kts 184°
2026-04-28 16:53 7.59306 116.15299 35875 ft 457 kts 184°
2026-04-28 16:54 7.52969 116.14848 35877 ft 456 kts 184°
2026-04-28 16:54 7.46653 116.14399 35886 ft 455 kts 184°
2026-04-28 16:55 7.40345 116.13951 35877 ft 454 kts 184°
2026-04-28 16:55 7.34050 116.13504 35881 ft 453 kts 184°
2026-04-28 16:56 7.27766 116.13057 35883 ft 452 kts 184°
2026-04-28 16:56 7.21493 116.12612 35877 ft 452 kts 184°
2026-04-28 16:57 7.15221 116.12167 35879 ft 452 kts 184°
2026-04-28 16:57 7.08951 116.11722 35880 ft 452 kts 184°
2026-04-28 16:58 7.02677 116.11276 35875 ft 452 kts 184°
2026-04-28 16:58 6.96403 116.10831 35881 ft 452 kts 184°
2026-04-28 16:59 6.90119 116.10386 35881 ft 453 kts 184°
2026-04-28 16:59 6.83869 116.09942 35876 ft 453 kts 184°
2026-04-28 17:00 6.77570 116.09496 35883 ft 454 kts 184°
2026-04-28 17:00 6.71267 116.09050 35877 ft 454 kts 184°
2026-04-28 17:01 6.64962 116.08612 35875 ft 454 kts 184°
2026-04-28 17:01 6.58654 116.08174 35880 ft 455 kts 184°
2026-04-28 17:02 6.52341 116.07736 35876 ft 455 kts 184°
2026-04-28 17:02 6.46030 116.07298 35874 ft 455 kts 184°
2026-04-28 17:03 6.36563 116.06640 35879 ft 454 kts 184°
2026-04-28 17:03 6.30253 116.06201 35876 ft 454 kts 184°
2026-04-28 17:04 6.20792 116.05544 35875 ft 454 kts 184°
2026-04-28 17:05 6.11330 116.04887 35870 ft 454 kts 183°
2026-04-28 17:06 6.01871 116.04231 35860 ft 454 kts 183°
2026-04-28 17:06 5.92418 116.03575 35857 ft 454 kts 183°
2026-04-28 17:07 5.86169 116.02981 35859 ft 454 kts 187°
2026-04-28 17:07 5.79917 116.02071 35858 ft 454 kts 188°
2026-04-28 17:08 5.73669 116.01139 35859 ft 454 kts 188°
2026-04-28 17:08 5.67411 116.00242 35859 ft 454 kts 188°
2026-04-28 17:09 5.61144 115.99362 35865 ft 455 kts 187°
2026-04-28 17:09 5.54871 115.98484 35863 ft 455 kts 187°
2026-04-28 17:10 5.48595 115.97605 35861 ft 456 kts 187°
2026-04-28 17:10 5.42314 115.96724 35872 ft 456 kts 187°
2026-04-28 17:11 5.36034 115.95843 35870 ft 455 kts 187°
2026-04-28 17:11 5.29763 115.94964 35879 ft 455 kts 187°
2026-04-28 17:12 5.23498 115.94086 35879 ft 455 kts 187°
2026-04-28 17:12 5.17227 115.93259 35891 ft 454 kts 187°
2026-04-28 17:13 5.10949 115.92459 35901 ft 454 kts 186°
2026-04-28 17:13 5.04685 115.91655 35903 ft 454 kts 187°
2026-04-28 17:14 4.99480 115.90982 35901 ft 453 kts 187°
2026-04-28 17:14 4.92180 115.90037 35917 ft 452 kts 187°
2026-04-28 17:15 4.87001 115.89364 35917 ft 451 kts 187°
2026-04-28 17:15 4.80781 115.88522 35916 ft 451 kts 187°
2026-04-28 17:16 4.74576 115.87672 35944 ft 450 kts 187°
2026-04-28 17:16 4.68371 115.86826 35935 ft 450 kts 187°
2026-04-28 17:17 4.62173 115.85984 35958 ft 449 kts 187°
2026-04-28 17:17 4.55976 115.85143 35956 ft 449 kts 187°
2026-04-28 17:18 4.49779 115.84301 35972 ft 449 kts 187°
2026-04-28 17:18 4.43583 115.83461 35974 ft 450 kts 187°
2026-04-28 17:19 4.37373 115.82618 35980 ft 451 kts 187°
2026-04-28 17:19 4.31154 115.81774 35981 ft 451 kts 187°
2026-04-28 17:20 4.25979 115.81072 35978 ft 452 kts 187°
2026-04-28 17:20 4.18690 115.80083 35982 ft 453 kts 187°
2026-04-28 17:21 4.12445 115.79235 35978 ft 453 kts 187°
2026-04-28 17:22 4.03097 115.77767 35980 ft 454 kts 190°
2026-04-28 17:22 3.96895 115.76545 35980 ft 454 kts 190°
2026-04-28 17:23 3.87593 115.74718 35985 ft 454 kts 190°
2026-04-28 17:23 3.81429 115.73536 35986 ft 454 kts 190°
2026-04-28 17:24 3.75174 115.72343 35982 ft 454 kts 190°
2026-04-28 17:24 3.68964 115.71160 35984 ft 454 kts 190°
2026-04-28 17:25 3.59694 115.69394 35982 ft 454 kts 190°
2026-04-28 17:26 3.53496 115.68213 35988 ft 453 kts 190°
2026-04-28 17:26 3.47297 115.67031 35983 ft 453 kts 190°
2026-04-28 17:27 3.41102 115.65851 35981 ft 453 kts 189°
2026-04-28 17:27 3.34909 115.64671 35982 ft 453 kts 189°
2026-04-28 17:28 3.28719 115.63492 35977 ft 452 kts 189°
2026-04-28 17:28 3.19447 115.61726 35982 ft 452 kts 189°
2026-04-28 17:29 3.13271 115.60549 35981 ft 451 kts 189°
2026-04-28 17:30 3.04010 115.58786 35976 ft 451 kts 189°
2026-04-28 17:30 2.94753 115.57024 35971 ft 451 kts 189°
2026-04-28 17:31 2.85500 115.55262 35968 ft 451 kts 189°
2026-04-28 17:32 2.76284 115.53508 35969 ft 452 kts 189°
2026-04-28 17:32 2.70099 115.52332 35965 ft 452 kts 189°
2026-04-28 17:33 2.63926 115.51157 35970 ft 452 kts 189°
2026-04-28 17:33 2.58754 115.50173 35974 ft 452 kts 189°
2026-04-28 17:34 2.51577 115.48808 35974 ft 452 kts 189°
2026-04-28 17:34 2.45396 115.47632 35967 ft 452 kts 189°
2026-04-28 17:35 2.39222 115.46458 35970 ft 452 kts 189°
2026-04-28 17:35 2.33043 115.45283 35966 ft 452 kts 189°
2026-04-28 17:36 2.26864 115.44108 35969 ft 452 kts 189°
2026-04-28 17:36 2.20678 115.42932 35968 ft 453 kts 189°
2026-04-28 17:37 2.14486 115.41755 35972 ft 453 kts 189°
2026-04-28 17:37 2.08288 115.40577 35968 ft 453 kts 189°
2026-04-28 17:38 2.02088 115.39398 35974 ft 454 kts 189°
2026-04-28 17:38 1.95891 115.38220 35969 ft 453 kts 189°
2026-04-28 17:39 1.89699 115.37043 35981 ft 453 kts 189°
2026-04-28 17:40 1.80409 115.35277 35978 ft 453 kts 189°
2026-04-28 17:40 1.74256 115.34108 35972 ft 453 kts 189°
2026-04-28 17:41 1.68057 115.32930 35970 ft 454 kts 189°
2026-04-28 17:41 1.61853 115.31752 35978 ft 454 kts 189°
2026-04-28 17:42 1.55642 115.30571 35978 ft 455 kts 189°
2026-04-28 17:42 1.49422 115.29389 35974 ft 455 kts 189°
2026-04-28 17:43 1.43192 115.28206 35967 ft 456 kts 189°
2026-04-28 17:43 1.36948 115.27020 35961 ft 457 kts 189°
2026-04-28 17:44 1.30694 115.25832 35964 ft 458 kts 189°
2026-04-28 17:44 1.24433 115.24643 35965 ft 458 kts 189°
2026-04-28 17:45 1.18169 115.23453 35960 ft 459 kts 189°
2026-04-28 17:45 1.11892 115.22261 35960 ft 459 kts 189°
2026-04-28 17:46 1.05606 115.21067 35956 ft 460 kts 189°
2026-04-28 17:46 0.99321 115.19873 35959 ft 460 kts 189°
2026-04-28 17:47 0.93037 115.18680 35954 ft 460 kts 189°
2026-04-28 17:47 0.86751 115.17486 35955 ft 459 kts 189°
2026-04-28 17:48 0.80469 115.16293 35950 ft 459 kts 189°
2026-04-28 17:48 0.74193 115.15102 35948 ft 459 kts 189°
2026-04-28 17:49 0.67955 115.13917 35945 ft 459 kts 189°
2026-04-28 17:49 0.61672 115.12724 35940 ft 460 kts 189°
2026-04-28 17:50 0.55388 115.11531 35945 ft 460 kts 189°
2026-04-28 17:50 0.49104 115.10338 35935 ft 460 kts 189°
2026-04-28 17:51 0.42816 115.09144 35940 ft 460 kts 189°
2026-04-28 17:51 0.36526 115.07950 35934 ft 460 kts 189°
2026-04-28 17:52 0.30233 115.06755 35934 ft 460 kts 189°
2026-04-28 17:52 0.20791 115.04962 35928 ft 460 kts 189°
2026-04-28 17:53 0.14492 115.03766 35930 ft 460 kts 189°
2026-04-28 17:53 0.08197 115.02571 35928 ft 460 kts 189°
2026-04-28 17:54 0.02165 115.01426 35936 ft 460 kts 189°
2026-04-28 17:54 -0.04136 115.00230 35912 ft 461 kts 189°
2026-04-28 17:55 -0.10442 114.99032 35926 ft 461 kts 189°
2026-04-28 17:55 -0.16756 114.97833 35917 ft 462 kts 189°
2026-04-28 17:56 -0.23073 114.96634 35920 ft 463 kts 189°
2026-04-28 17:56 -0.29400 114.95432 35907 ft 463 kts 189°
2026-04-28 17:57 -0.35692 114.94236 35909 ft 463 kts 189°
2026-04-28 17:57 -0.42021 114.93033 35898 ft 463 kts 189°
2026-04-28 17:58 -0.48355 114.91830 35900 ft 463 kts 189°
2026-04-28 17:58 -0.54678 114.90628 35897 ft 463 kts 189°
2026-04-28 17:59 -0.61001 114.89426 35893 ft 462 kts 189°
2026-04-28 17:59 -0.67317 114.88226 35893 ft 462 kts 189°
2026-04-28 18:00 -0.73625 114.87027 35892 ft 461 kts 189°
2026-04-28 18:00 -0.79928 114.85829 35894 ft 461 kts 189°
2026-04-28 18:01 -0.86225 114.84631 35886 ft 461 kts 189°
2026-04-28 18:01 -0.92489 114.83493 35879 ft 460 kts 184°
2026-04-28 18:02 -0.98848 114.83468 35884 ft 457 kts 175°
2026-04-28 18:02 -1.05199 114.83736 35890 ft 457 kts 175°
2026-04-28 18:03 -1.11549 114.83983 35887 ft 457 kts 176°
2026-04-28 18:03 -1.16875 114.84165 35883 ft 457 kts 176°
2026-04-28 18:04 -1.23232 114.84367 35883 ft 457 kts 176°
2026-04-28 18:04 -1.29583 114.84566 35889 ft 457 kts 176°
2026-04-28 18:05 -1.34864 114.84731 35890 ft 457 kts 176°
2026-04-28 18:05 -1.42245 114.84964 35882 ft 456 kts 176°
2026-04-28 18:06 -1.48592 114.85164 35884 ft 456 kts 176°
2026-04-28 18:06 -1.54940 114.85365 35879 ft 456 kts 176°
2026-04-28 18:07 -1.61282 114.85565 35879 ft 456 kts 176°
2026-04-28 18:07 -1.67620 114.85765 35876 ft 456 kts 176°
2026-04-28 18:08 -1.73958 114.85965 35877 ft 456 kts 176°
2026-04-28 18:08 -1.80295 114.86166 35874 ft 456 kts 176°
2026-04-28 18:09 -1.86628 114.86366 35876 ft 456 kts 176°
2026-04-28 18:09 -1.92966 114.86566 35873 ft 456 kts 176°
2026-04-28 18:10 -1.99304 114.86766 35868 ft 456 kts 176°
2026-04-28 18:10 -2.05643 114.86966 35868 ft 456 kts 176°
2026-04-28 18:11 -2.11983 114.87167 35866 ft 456 kts 176°
2026-04-28 18:11 -2.18322 114.87367 35868 ft 456 kts 176°
2026-04-28 18:12 -2.24627 114.87567 35863 ft 456 kts 176°
2026-04-28 18:12 -2.30970 114.87767 35863 ft 456 kts 176°
2026-04-28 18:13 -2.37319 114.87968 35859 ft 456 kts 176°
2026-04-28 18:13 -2.43669 114.88168 35861 ft 457 kts 176°
2026-04-28 18:14 -2.50022 114.88369 35862 ft 457 kts 176°
2026-04-28 18:14 -2.56376 114.88570 35860 ft 457 kts 176°
2026-04-28 18:15 -2.62729 114.88771 35860 ft 457 kts 176°
2026-04-28 18:15 -2.69087 114.88972 35857 ft 457 kts 176°
2026-04-28 18:16 -2.75447 114.89173 35857 ft 457 kts 176°
2026-04-28 18:16 -2.81808 114.89375 35856 ft 457 kts 176°
2026-04-28 18:17 -2.88167 114.89576 35857 ft 457 kts 176°
2026-04-28 18:17 -2.94532 114.89777 35856 ft 458 kts 176°
2026-04-28 18:18 -3.00897 114.89979 35858 ft 458 kts 176°
2026-04-28 18:18 -3.06229 114.90147 35859 ft 458 kts 176°
2026-04-28 18:19 -3.13626 114.90381 35853 ft 458 kts 176°
2026-04-28 18:19 -3.19992 114.90583 35847 ft 458 kts 176°
2026-04-28 18:20 -3.26240 114.90779 35866 ft 432 kts 176°
2026-04-28 18:20 -3.29182 114.90869 35853 ft 416 kts 176°
2026-04-28 18:20 -3.32056 114.90959 35844 ft 412 kts 176°
2026-04-28 18:21 -3.37783 114.91143 35796 ft 413 kts 176°
2026-04-28 18:21 -3.43598 114.91331 35843 ft 423 kts 176°
2026-04-28 18:22 -3.49544 114.91521 35850 ft 433 kts 176°
2026-04-28 18:22 -3.55634 114.91714 35869 ft 443 kts 176°
2026-04-28 18:23 -3.61857 114.91911 35883 ft 452 kts 176°
2026-04-28 18:23 -3.68206 114.92112 35880 ft 460 kts 176°
2026-04-28 18:24 -3.73538 114.92280 35870 ft 462 kts 176°
2026-04-28 18:24 -3.81066 114.92518 35874 ft 463 kts 176°
2026-04-28 18:25 -3.87513 114.92722 35888 ft 463 kts 176°
2026-04-28 18:26 -3.97157 114.93027 35885 ft 461 kts 176°
2026-04-28 18:26 -4.03557 114.93230 35893 ft 459 kts 176°
2026-04-28 18:27 -4.09934 114.93433 35894 ft 458 kts 176°
2026-04-28 18:27 -4.16248 114.93633 35894 ft 456 kts 176°
2026-04-28 18:28 -4.22576 114.93834 35896 ft 454 kts 176°
2026-04-28 18:28 -4.28890 114.94031 35893 ft 454 kts 178°
2026-04-28 18:28 -4.32021 114.93646 35878 ft 457 kts 197°
2026-04-28 18:29 -4.34898 114.92296 35902 ft 459 kts 212°
2026-04-28 18:29 -4.37318 114.90205 35891 ft 462 kts 229°
2026-04-28 18:29 -4.39314 114.87681 35904 ft 463 kts 231°
2026-04-28 18:30 -4.43178 114.82506 35900 ft 465 kts 232°
2026-04-28 18:30 -4.47061 114.77303 35895 ft 467 kts 232°
2026-04-28 18:31 -4.51001 114.72105 35895 ft 469 kts 231°
2026-04-28 18:31 -4.54977 114.66901 35897 ft 471 kts 231°
2026-04-28 18:32 -4.58970 114.61681 35894 ft 472 kts 231°
2026-04-28 18:32 -4.62969 114.56452 35892 ft 473 kts 231°
2026-04-28 18:33 -4.66969 114.51216 35892 ft 473 kts 231°
2026-04-28 18:33 -4.70966 114.45983 35889 ft 472 kts 231°
2026-04-28 18:34 -4.74953 114.40762 35895 ft 471 kts 231°
2026-04-28 18:34 -4.78934 114.35548 35888 ft 470 kts 231°
2026-04-28 18:35 -4.82906 114.30345 35892 ft 469 kts 231°
2026-04-28 18:35 -4.86845 114.25184 35891 ft 468 kts 231°
2026-04-28 18:36 -4.90798 114.20002 35892 ft 468 kts 231°
2026-04-28 18:36 -4.94748 114.14825 35893 ft 467 kts 231°
2026-04-28 18:37 -4.98692 114.09653 35892 ft 467 kts 231°
2026-04-28 18:37 -5.02633 114.04484 35892 ft 466 kts 231°
2026-04-28 18:38 -5.06573 113.99316 35894 ft 466 kts 231°
2026-04-28 18:38 -5.10515 113.94144 35894 ft 467 kts 231°
2026-04-28 18:39 -5.14458 113.88970 35894 ft 467 kts 231°
2026-04-28 18:39 -5.18409 113.83783 35897 ft 468 kts 231°
2026-04-28 18:40 -5.22361 113.78594 35895 ft 469 kts 231°
2026-04-28 18:40 -5.26319 113.73396 35896 ft 469 kts 231°
2026-04-28 18:41 -5.30278 113.68195 35897 ft 469 kts 231°
2026-04-28 18:41 -5.34236 113.62994 35894 ft 469 kts 231°
2026-04-28 18:42 -5.38195 113.57791 35896 ft 469 kts 231°
2026-04-28 18:42 -5.42152 113.52590 35894 ft 469 kts 231°
2026-04-28 18:43 -5.46111 113.47384 35656 ft 471 kts 231°
2026-04-28 18:43 -5.48092 113.44779 35306 ft 467 kts 231°
2026-04-28 18:43 -5.50053 113.42198 34901 ft 463 kts 231°
2026-04-28 18:43 -5.52000 113.39638 34508 ft 460 kts 231°
2026-04-28 18:44 -5.53933 113.37094 34101 ft 457 kts 231°
2026-04-28 18:44 -5.57769 113.32046 33203 ft 452 kts 231°
2026-04-28 18:44 -5.59644 113.29579 32779 ft 449 kts 231°
2026-04-28 18:45 -5.61529 113.27097 32379 ft 445 kts 232°
2026-04-28 18:45 -5.63399 113.24635 31971 ft 442 kts 232°
2026-04-28 18:45 -5.65259 113.22187 31570 ft 439 kts 232°
2026-04-28 18:45 -5.67106 113.19755 31169 ft 437 kts 232°
2026-04-28 18:46 -5.68941 113.17338 30778 ft 434 kts 232°
2026-04-28 18:46 -5.70768 113.14932 30371 ft 432 kts 232°
2026-04-28 18:46 -5.72585 113.12539 29985 ft 430 kts 232°
2026-04-28 18:46 -5.74394 113.10155 29498 ft 428 kts 232°
2026-04-28 18:47 -5.76190 113.07788 29079 ft 424 kts 232°
2026-04-28 18:47 -5.77972 113.05439 28658 ft 421 kts 232°
2026-04-28 18:47 -5.79738 113.03111 28245 ft 418 kts 232°
2026-04-28 18:47 -5.81493 113.00799 27842 ft 415 kts 232°
2026-04-28 18:48 -5.83234 112.98503 27448 ft 412 kts 232°
2026-04-28 18:48 -5.84963 112.96223 27054 ft 409 kts 232°
2026-04-28 18:48 -5.86789 112.94057 26636 ft 405 kts 219°
2026-04-28 18:48 -5.89148 112.92568 26272 ft 399 kts 201°
2026-04-28 18:49 -5.91793 112.91842 25894 ft 393 kts 188°
2026-04-28 18:49 -5.92705 112.91695 25775 ft 392 kts 187°
2026-04-28 18:49 -5.97180 112.91046 25115 ft 389 kts 186°
2026-04-28 18:49 -5.98992 112.90792 24840 ft 389 kts 186°
2026-04-28 18:50 -6.01667 112.90412 24453 ft 387 kts 187°
2026-04-28 18:50 -6.04329 112.90025 24059 ft 386 kts 187°
2026-04-28 18:50 -6.06986 112.89630 23675 ft 385 kts 187°
2026-04-28 18:50 -6.09599 112.89235 23260 ft 384 kts 187°
2026-04-28 18:51 -6.12237 112.88834 22843 ft 382 kts 187°
2026-04-28 18:51 -6.14857 112.88434 22448 ft 379 kts 187°
2026-04-28 18:51 -6.17455 112.88036 22063 ft 377 kts 187°
2026-04-28 18:51 -6.20042 112.87640 21685 ft 374 kts 187°
2026-04-28 18:52 -6.22606 112.87247 21320 ft 372 kts 187°
2026-04-28 18:52 -6.25155 112.86856 20944 ft 369 kts 187°
2026-04-28 18:52 -6.27689 112.86468 20578 ft 367 kts 187°
2026-04-28 18:52 -6.30210 112.86082 20213 ft 365 kts 187°
2026-04-28 18:53 -6.32716 112.85698 19847 ft 363 kts 188°
2026-04-28 18:53 -6.35210 112.85316 19482 ft 362 kts 188°
2026-04-28 18:53 -6.37694 112.84935 19119 ft 361 kts 188°
2026-04-28 18:53 -6.40171 112.84556 18745 ft 360 kts 188°
2026-04-28 18:54 -6.42640 112.84177 18381 ft 359 kts 188°
2026-04-28 18:54 -6.45104 112.83800 17989 ft 358 kts 188°
2026-04-28 18:54 -6.47559 112.83423 17600 ft 356 kts 188°
2026-04-28 18:54 -6.49993 112.83050 17220 ft 353 kts 188°
2026-04-28 18:55 -6.52419 112.82678 16856 ft 351 kts 188°
2026-04-28 18:55 -6.54825 112.82309 16497 ft 349 kts 188°
2026-04-28 18:55 -6.57216 112.81942 16146 ft 347 kts 188°
2026-04-28 18:55 -6.59595 112.81577 15799 ft 345 kts 188°
2026-04-28 18:56 -6.61957 112.81215 15451 ft 342 kts 188°
2026-04-28 18:56 -6.64305 112.80855 15111 ft 341 kts 187°
2026-04-28 18:56 -6.66630 112.80426 14761 ft 340 kts 197°
2026-04-28 18:56 -6.68675 112.79270 14415 ft 340 kts 222°
2026-04-28 18:57 -6.70116 112.77412 14139 ft 337 kts 242°
2026-04-28 18:57 -6.70869 112.75198 13831 ft 335 kts 256°
2026-04-28 18:57 -6.71384 112.72915 13435 ft 335 kts 257°
2026-04-28 18:57 -6.71869 112.70626 13082 ft 333 kts 258°
2026-04-28 18:58 -6.72351 112.68352 12736 ft 332 kts 258°
2026-04-28 18:58 -6.72841 112.66085 12339 ft 332 kts 257°
2026-04-28 18:58 -6.73336 112.63835 12092 ft 327 kts 257°
2026-04-28 18:58 -6.73831 112.61607 11767 ft 326 kts 257°
2026-04-28 18:59 -6.74326 112.59392 11459 ft 323 kts 257°
2026-04-28 18:59 -6.74812 112.57222 11152 ft 321 kts 257°
2026-04-28 18:59 -6.75301 112.55044 10961 ft 315 kts 257°
2026-04-28 18:59 -6.75777 112.52919 10821 ft 308 kts 257°
2026-04-28 19:00 -6.76299 112.50856 10678 ft 300 kts 248°
2026-04-28 19:00 -6.77452 112.49164 10545 ft 291 kts 220°
2026-04-28 19:00 -6.79163 112.48138 10259 ft 288 kts 197°
2026-04-28 19:00 -6.81112 112.47803 9973 ft 284 kts 176°
2026-04-28 19:01 -6.83070 112.47984 9690 ft 282 kts 171°
2026-04-28 19:01 -6.85022 112.48227 9374 ft 282 kts 170°
2026-04-28 19:01 -6.86963 112.48473 9091 ft 281 kts 171°
2026-04-28 19:01 -6.88899 112.48714 8813 ft 280 kts 171°
2026-04-28 19:02 -6.90827 112.48948 8538 ft 279 kts 171°
2026-04-28 19:02 -6.92750 112.49177 8265 ft 278 kts 171°
2026-04-28 19:02 -6.94668 112.49403 7990 ft 277 kts 171°
2026-04-28 19:02 -6.96581 112.49627 7713 ft 276 kts 171°
2026-04-28 19:03 -6.98484 112.49850 7462 ft 274 kts 171°
2026-04-28 19:03 -7.00365 112.50064 7254 ft 271 kts 171°
2026-04-28 19:03 -7.02230 112.50275 7046 ft 267 kts 171°
2026-04-28 19:03 -7.04069 112.50482 6851 ft 265 kts 171°
2026-04-28 19:04 -7.05894 112.50688 6646 ft 262 kts 171°
2026-04-28 19:04 -7.07699 112.50893 6452 ft 259 kts 171°
2026-04-28 19:04 -7.09481 112.51094 6243 ft 257 kts 171°
2026-04-28 19:04 -7.11250 112.51295 6045 ft 255 kts 171°
2026-04-28 19:05 -7.13007 112.51494 5834 ft 253 kts 171°
2026-04-28 19:05 -7.14749 112.51692 5643 ft 251 kts 171°
2026-04-28 19:05 -7.16485 112.51889 5446 ft 250 kts 171°
2026-04-28 19:05 -7.18204 112.52084 5240 ft 249 kts 171°
2026-04-28 19:06 -7.19924 112.52279 5066 ft 248 kts 171°
2026-04-28 19:06 -7.21062 112.52409 4938 ft 248 kts 171°
2026-04-28 19:06 -7.23359 112.52670 4687 ft 248 kts 171°
2026-04-28 19:06 -7.25074 112.52864 4477 ft 247 kts 171°
2026-04-28 19:07 -7.26766 112.53056 4281 ft 244 kts 171°
2026-04-28 19:07 -7.28444 112.53246 4090 ft 240 kts 171°
2026-04-28 19:07 -7.30094 112.53433 3909 ft 237 kts 171°
2026-04-28 19:07 -7.31724 112.53618 3724 ft 234 kts 171°
2026-04-28 19:08 -7.33247 112.54058 3515 ft 225 kts 141°
2026-04-28 19:08 -7.34109 112.55284 3364 ft 214 kts 102°
2026-04-28 19:08 -7.34352 112.56761 3233 ft 216 kts 100°
2026-04-28 19:08 -7.34634 112.58245 3055 ft 215 kts 101°
2026-04-28 19:09 -7.34913 112.59712 2875 ft 212 kts 100°
2026-04-28 19:09 -7.35159 112.61151 2724 ft 204 kts 99°
2026-04-28 19:09 -7.35384 112.62535 2545 ft 197 kts 99°
2026-04-28 19:09 -7.35598 112.63870 2381 ft 190 kts 99°
2026-04-28 19:10 -7.35802 112.65143 2234 ft 184 kts 99°
2026-04-28 19:10 -7.36001 112.66382 2100 ft 175 kts 99°
2026-04-28 19:10 -7.36195 112.67582 1870 ft 172 kts 99°
2026-04-28 19:10 -7.36383 112.68752 1661 ft 165 kts 99°
2026-04-28 19:11 -7.36559 112.69850 1481 ft 151 kts 99°
2026-04-28 19:11 -7.36723 112.70867 1251 ft 140 kts 99°
2026-04-28 19:11 -7.36876 112.71815 1082 ft 140 kts 99°
2026-04-28 19:11 -7.37033 112.72794 897 ft 142 kts 99°
2026-04-28 19:12 -7.37191 112.73781 719 ft 144 kts 99°
2026-04-28 19:12 -7.37351 112.74775 560 ft 144 kts 99°
2026-04-28 19:12 -7.37511 112.75769 391 ft 144 kts 98°
2026-04-28 19:12 -7.37672 112.76776 193 ft 147 kts 99°
2026-04-28 19:13 -7.37834 112.77790 18 ft 143 kts 99°
2026-04-28 19:13 -7.37978 112.78671 9 ft 107 kts 100°
2026-04-28 19:13 -7.38075 112.79261 10 ft 64 kts 98°
2026-04-28 19:13 -7.38112 112.79516 8 ft 23 kts 92°
2026-04-28 19:14 -7.38076 112.79664 9 ft 12 kts 69°
2026-04-28 19:14 -7.38042 112.79743 8 ft 12 kts 55°
2026-04-28 19:14 -7.37964 112.79780 8 ft 14 kts 11°
2026-04-28 19:14 -7.37864 112.79795 8 ft 15 kts
2026-04-28 19:15 -7.37767 112.79809 8 ft 10 kts
2026-04-28 19:15 -7.37730 112.79762 8 ft 7 kts 285°
2026-04-28 19:15 -7.37702 112.79753 8 ft 5 kts
2026-04-28 19:15 -7.37676 112.79756 8 ft 6 kts
2026-04-28 19:16 -7.37643 112.79761 8 ft 1 kts
2026-04-28 19:16 -7.37639 112.79762 8 ft 0 kts